Location: White Sands National Monument
(32.8140°N, 106.2665°W)
Time: 02:53:09
(UTC-06:00)

Daily predictions for brighter satellites

Satellite Brightness Start Highest point End
(mag) Time Altitude Azimuth Time Altitude Azimuth Time Altitude Azimuth
CZ-2D R/B 4.4 02:26:48 10° NNE 02:28:39 20° NE 02:28:39 20° NE
SL-16 R/B 3.8 02:36:53 36° NE 02:36:53 36° NE 02:41:20 10° N
Cosmos 1980 Rocket 4.3 02:35:24 10° NNE 02:39:33 21° ENE 02:39:51 21° ENE
Cosmos 2082 Rocket 4.0 02:48:31 26° NNE 02:48:31 26° NNE 02:50:54 10° NNE
ATLAS 3B R/B 3.9 03:03:31 33° ESE 03:03:31 33° ESE 03:09:25 10° NE
Resurs 1-4 Rocket 3.8 03:02:06 10° NNE 03:04:38 29° NNE 03:04:38 29° NNE
Cosmos 2279 Rocket 4.4 03:21:32 58° ENE 03:21:32 58° ENE 03:26:58 10° NNE
Cosmos 1833 Rocket 4.5 03:23:18 23° NNW 03:23:18 23° NNW 03:25:54 10° N
SEDSat Delta rocket 4.4 03:33:53 53° ESE 03:33:53 53° ESE 03:39:00 10° E
USA 215 3.9 03:26:42 10° NE 03:32:52 44° SE 03:32:57 44° SE
Cosmos 2026 Rocket 4.2 03:28:39 10° N 03:34:02 66° N 03:34:02 66° N
Centaur D-1A AC-35 3.8 03:47:52 46° SSE 03:47:52 46° SSE 04:02:50 10° E
Timation 2 Rocket 3.8 03:52:40 83° E 03:52:40 83° E 03:58:37 10° NNE
ARIANE 5 R/B 3.4 03:50:27 10° N 03:54:03 40° NNW 03:54:03 40° NNW
Cosmos 1814 Rocket 4.2 04:01:04 63° N 04:01:04 63° N 04:05:26 10° NNE
USA 238 DEB 3.5 04:05:07 67° WSW 04:06:02 77° WNW 04:12:59 10° NNE
USA 238 3.5 04:05:12 67° WSW 04:06:09 78° WNW 04:13:06 10° NNE
DNEPR-1 R/B 4.0 04:11:12 54° E 04:11:12 54° E 04:14:59 10° NE
CZ-2D R/B 3.8 04:07:18 10° NNW 04:10:00 21° NW 04:10:00 21° NW
Delta 2 Rocket 4.5 04:11:37 50° SSE 04:11:37 50° SSE 04:17:03 10° E
Cosmos 1655 Rocket 3.9 04:05:34 10° N 04:11:55 71° W 04:12:48 62° SW
Meteor 1-21 4.0 04:15:47 71° SW 04:16:16 76° W 04:21:54 10° N
BREEZE-M R/B 4.5 04:18:18 24° NNW 04:18:18 24° NNW 04:21:43 10° NNE
SL-16 R/B 4.1 04:21:58 20° WNW 04:21:58 20° WNW 04:24:23 10° NW
Cosmos 2298 Rocket 4.2 04:14:05 10° NNW 04:19:24 70° ENE 04:24:40 10° SSE
Cosmos 1980 Rocket 3.2 04:18:24 10° NW 04:21:31 31° NW 04:21:31 31° NW
Meteor 2-11 Rocket 4.4 04:25:41 36° S 04:28:25 88° E 04:34:36 10° N
Cosmos 841 Rocket 3.5 04:28:29 57° W 04:28:43 58° WNW 04:33:50 10° N
BREEZE-M DEB (TANK) 4.3 04:19:02 10° NW 04:30:49 47° NNE 04:34:21 10° E
Cosmos 1602 Rocket 3.6 04:30:58 54° SSE 04:31:51 74° E 04:36:10 10° N
ADEOS II 2.0 04:26:48 10° N 04:32:03 75° WNW 04:33:18 52° SW
ADEOS 4.1 04:29:11 10° N 04:34:01 40° WNW 04:34:05 40° WNW
OAO 3 Rocket 3.9 04:37:15 35° S 04:37:15 35° S 04:40:33 10° SE
Cosmos 2058 Rocket 3.5 04:31:56 10° NNW 04:35:26 45° WNW 04:35:26 45° WNW
SL-16 R/B 2.5 04:31:22 10° NNW 04:37:02 69° ENE 04:42:39 10° SSE
Cosmos 1470 4.2 04:34:01 10° NNE 04:37:44 37° E 04:41:24 10° SSE
Cosmos 2228 4.1 04:35:44 10° NNW 04:38:16 30° NW 04:38:16 30° NW
NOSS 3-2 (C) 3.3 04:40:41 35° SSW 04:43:18 82° ESE 04:49:37 10° NNE
ATLAS 5 CENTAUR R/B 3.9 04:38:30 26° SW 04:43:48 33° S 04:49:30 10° ESE
Cosmos 1626 Rocket 3.4 04:43:42 58° SW 04:44:16 66° W 04:48:34 10° N
Cosmos 540 Rocket 3.3 04:42:44 43° SSW 04:44:23 76° WNW 04:49:33 10° NNE
Cosmos 1378 3.0 04:49:19 52° S 04:50:10 86° W 04:53:56 10° N
Cosmos 1707 3.0 04:48:19 26° SSE 04:50:19 64° E 04:54:11 10° NNE
Cosmos 2322 Rocket 2.1 04:46:49 10° NNW 04:52:28 89° ENE 04:58:04 10° SSE
Cosmos 292 Rocket 4.3 04:52:10 37° W 04:52:56 40° WNW 04:57:29 10° N
ATLAS 3B R/B 3.3 04:50:47 30° WSW 04:53:46 43° NW 05:00:23 10° NNE
SJ 16-02 2.4 04:50:57 10° N 04:55:12 46° ENE 04:59:26 10° SE
Cosmos 1833 4.2 04:52:35 25° SSW 04:56:04 87° WNW 05:01:54 10° NNE
ATLAS CENTAUR R/B 4.4 04:56:33 10° N 04:59:55 20° NE 05:03:24 10° ESE
NOSS 3-2 (A) 3.7 04:57:37 31° WSW 05:00:12 51° NW 05:06:23 10° NNE
MOS 1-B 4.3 05:00:13 10° NNE 05:06:03 88° WNW 05:11:52 10° SSW
Meteor 1-31 Rocket 4.0 05:07:47 10° NNE 05:11:26 40° E 05:15:02 10° S
Cosmos 1953 2.4 05:08:37 10° NNW 05:12:36 56° W 05:16:33 10° S
PSLV R/B 3.6 05:09:39 10° N 05:13:28 81° WNW 05:16:26 16° SSW
CENTAUR R/B 2.9 05:08:42 10° SSW 05:14:15 57° ESE 05:20:33 10° NE
USA 215 3.8 05:09:39 10° NNE 05:15:47 45° NW 05:20:19 18° WSW
Cosmos 44 3.7 05:12:42 10° NW 05:17:49 49° WSW 05:23:00 10° S
CZ-4B R/B 3.9 05:12:42 10° NNE 05:18:07 55° E 05:23:25 10° S
SEDSat Delta rocket 4.0 05:14:00 18° W 05:18:58 72° S 05:25:46 10° ESE
Cosmos 1553 Rocket 4.2 05:15:17 10° S 05:21:39 77° E 05:28:05 10° N
Cosmos 783 Rocket 4.5 05:16:31 10° SSW 05:21:42 88° ESE 05:26:56 10° NNE
Meteor 1-28 Rocket 4.4 05:19:26 10° SSE 05:23:00 45° ENE 05:26:36 10° N
PSLV R/B 4.1 05:21:51 21° WNW 05:23:15 33° NNW 05:26:00 10° NE
Aureole 2 Rocket 2.7 05:19:35 10° NNW 05:23:18 72° ENE 05:26:44 10° SSE
Centaur D-1AR AC-36 4.0 05:21:11 11° SSW 05:23:31 14° S 05:27:47 10° SE
Cosmos 1125 Rocket 3.5 05:22:27 10° NNW 05:27:47 89° ENE 05:33:03 10° SSE
IDEFIX/ARIANE 42P 4.2 05:23:25 10° NNE 05:28:10 35° E 05:32:55 10° SSE
Meteor PRIRODA 3.8 05:26:26 10° NNE 05:30:08 76° E 05:33:50 10° S
ERBS 3.1 05:28:35 21° WSW 05:30:18 36° NW 05:33:28 10° NNE
CZ-4B R/B 4.0 05:28:07 10° NNE 05:31:59 76° ESE 05:36:00 10° S
Cosmos 2292 Rocket 4.1 05:29:21 10° N 05:32:34 42° E 05:35:24 10° SSE
Cosmos 1825 Rocket 3.5 05:30:05 10° SSW 05:34:19 60° W 05:38:36 10° N
Cosmos 2322 4.4 05:29:20 10° NNW 05:35:01 61° ENE 05:40:39 10° SSE
Okean O Rocket 1.5 05:31:34 10° N 05:35:56 78° WNW 05:40:14 10° SSW
CZ-4B DEB 4.2 05:34:01 10° N 05:39:34 77° WNW 05:45:03 10° SSW
CRYOSAT 2 4.3 05:35:49 10° S 05:40:35 62° W 05:45:24 10° NNW
BREEZE-M DEB 3.6 05:39:26 20° WSW 05:40:46 56° NW 05:43:20 10° NE
Cosmos 44 Rocket 3.9 05:42:21 10° NW 05:47:06 38° WSW 05:51:51 10° S
Cosmos 372 Rocket 4.2 05:46:16 10° NNW 05:51:15 47° WSW 05:56:10 10° S
Meteor 2-5 Rocket 3.8 05:46:17 10° SSW 05:51:39 55° W 05:57:07 10° N
Cosmos 192 4.3 05:49:09 10° SSW 05:54:02 78° WNW 05:58:58 10° NNE
Delta 2 Rocket 4.2 05:48:38 10° W 05:54:23 77° NNW 05:59:46 10° ENE
Cosmos 1953 Rocket 4.0 05:56:10 10° SSW 06:00:26 43° W 06:04:41 10° N
PAYLOAD A 4.5 05:55:55 10° NNE 06:01:14 70° ESE 06:06:21 10° S
Cosmos 2360 Rocket 2.4 05:59:51 10° NNW 06:05:16 50° WSW 06:10:39 10° S
S3M 4.2 06:00:21 10° SSW 06:06:16 50° W 06:12:11 10° N
SL-24 DEB 4.4 06:02:04 10° S 06:06:45 85° E 06:11:29 10° N
NOAA 6 4.4 06:02:10 10° NNE 06:07:18 70° ESE 06:12:26 10° S
Cosmos 2219 3.3 06:01:55 10° SSW 06:07:36 78° WNW 06:13:21 10° NNE
Cosmos 1745 Rocket 4.0 06:01:54 10° N 06:08:05 74° W 06:14:19 10° S
